Flag Weather past 2 weeks in Freital, Saxony, Germany

Now
33 °F

Clear.


Feels Like: 28 °F
Forecast: 32 / 38 °F
Wind: 5 mph from East

Location: Dresden-Klotzsche

Current Time: Nov 26, 2014 at 6:57:51 AM

Latest Report: Nov 26, 2014 at 6:00 AM


Visibility: 6 mi

Pressure: 30.27 "Hg

Humidity: 92%

Dew point: 31 °F

Location of FreitalLocation

Historic Weather in Freital — Graph

°F

Freital temperature yesterday

Maximum temperature yesterday: 44 °F (at 2:00 PM)
Minimum temperature yesterday: 36 °F (at 11:00 PM)
Average temperature yesterday: 39 °F

Past Weeks' High & Low Weather Summary

 TemperatureHumidityPressure
High57 °F (Nov 12, 12:00 PM)100% (Nov 11, 6:00 AM)30.38 "Hg (Nov 11, 6:00 AM)
Low33 °F (Nov 26, 5:00 AM)69% (Nov 14, 2:00 PM)29.54 "Hg (Nov 16, 7:00 AM)
Average45 °F89%30.02 "Hg
* Reported Nov 11 5:00 AM — Nov 26 5:00 AM, Freital, Weather by CustomWeather, © 2014

Note: Actual official high and low records may vary slightly from our data, if they occured in-between our weather recording intervals... More about our weather records

Advertising

Freital weather history for previous 24 hours

 ConditionsComfort  
Time TempWeatherWind HumidityBarometerVisibility
5:00 AM
Nov 26
33 °FClear.5 mph93%30.27 "Hg6 mi
3:00 AM34 °FClear.5 mph93%30.29 "Hg6 mi
2:00 AM34 °FClear.5 mph92%30.29 "Hg6 mi
1:00 AM34 °FPassing clouds.5 mph95%30.31 "Hg6 mi
12:00 AM35 °FPassing clouds.3 mph95%30.32 "Hg6 mi
11:00 PM
Nov 25
36 °FPassing clouds.3 mph94%30.33 "Hg6 mi
9:00 PM36 °FPassing clouds.3 mph93%30.34 "Hg7 mi
8:00 PM36 °FPassing clouds.2 mph91%30.35 "Hg9 mi
7:00 PM38 °FOvercast.5 mph88%30.34 "Hg9 mi
6:00 PM40 °FLow clouds.3 mph89%30.35 "Hg10 mi
5:00 PM41 °FLow clouds.2 mph93%30.34 "Hg7 mi
3:00 PM43 °FScattered clouds.1 mph85%30.34 "Hg7 mi
2:00 PM44 °FPartly sunny.2 mph84%30.34 "Hg7 mi
1:00 PM43 °FPartly sunny.1 mph85%30.35 "Hg7 mi
12:00 PM42 °FPartly sunny.1 mph87%30.36 "Hg7 mi
11:00 AM42 °FPartly sunny.1 mph93%30.37 "Hg6 mi
9:00 AM38 °FOvercast.2 mph99%30.38 "Hg5 mi
8:00 AM36 °FFog.3 mph100%30.37 "Hg2 mi
7:00 AM36 °FFog.3 mph99%30.37 "Hg1 mi
6:00 AM37 °FFog.3 mph100%30.36 "Hg2 mi
Weather by CustomWeather, © 2014

See weather overviewHow to use our weather pages